Time,TemperatureF,DewpointF,PressureIn,WindDirection,WindDirectionDegrees,WindSpeedMPH,WindSpeedGustMPH,Humidity,HourlyPrecipIn,Conditions,Clouds,dailyrainin,SoftwareType,DateUTC
2013-02-02 00:00:00,17.5,4.5,30.39,WNW,289,7.0,11.0,56,0.00,,---,0.00,VWS V13.01,2013-02-02 05:00:00,
2013-02-02 00:01:00,17.5,4.5,30.39,WNW,292,7.0,11.0,56,0.00,,---,0.00,VWS V13.01,2013-02-02 05:01:00,
2013-02-02 00:06:00,17.4,4.4,30.39,WNW,292,9.0,11.0,56,0.00,,---,0.00,VWS V13.01,2013-02-02 05:06:00,
2013-02-02 00:11:00,17.4,4.4,30.39,WNW,285,8.0,11.0,56,0.00,,---,0.00,VWS V13.01,2013-02-02 05:11:00,
2013-02-02 00:16:00,17.3,4.7,30.40,WNW,283,6.0,11.0,57,0.00,,---,0.00,VWS V13.01,2013-02-02 05:16:00,
2013-02-02 00:21:00,17.3,4.7,30.39,WNW,287,2.0,11.0,57,0.00,,---,0.00,VWS V13.01,2013-02-02 05:21:00,
2013-02-02 00:26:00,17.1,4.5,30.39,WNW,294,4.0,11.0,57,0.00,,---,0.00,VWS V13.01,2013-02-02 05:26:00,
2013-02-02 00:30:00,15.4,4.0,30.39,NW,304,0.0,5.0,60,0.00,,SKC,0.00,VWS V14.01,2013-02-02 05:30:00,
2013-02-02 00:31:00,17.0,4.8,30.40,West,270,6.0,7.0,58,0.00,,---,0.00,VWS V13.01,2013-02-02 05:31:00,
2013-02-02 00:36:00,17.0,4.8,30.39,WNW,293,2.0,8.0,58,0.00,,---,0.00,VWS V13.01,2013-02-02 05:36:00,
2013-02-02 00:41:00,16.8,4.6,30.39,WNW,297,5.0,8.0,58,0.00,,---,0.00,VWS V13.01,2013-02-02 05:41:00,
2013-02-02 00:46:00,16.8,4.6,30.39,NW,308,3.0,8.0,58,0.00,,---,0.00,VWS V13.01,2013-02-02 05:46:00,
2013-02-02 00:51:00,16.7,4.5,30.39,WNW,297,1.0,8.0,58,0.00,,---,0.00,VWS V13.01,2013-02-02 05:51:00,
2013-02-02 00:56:00,16.7,4.9,30.39,West,269,0.0,8.0,59,0.00,,---,0.00,VWS V13.01,2013-02-02 05:56:00,
2013-02-02 01:00:00,14.4,3.8,30.38,West,278,0.0,2.0,62,0.00,,SKC,0.00,VWS V14.01,2013-02-02 06:00:00,
2013-02-02 01:01:00,16.6,4.8,30.39,West,278,1.0,2.0,59,0.00,,---,0.00,VWS V13.01,2013-02-02 06:01:00,
2013-02-02 01:06:00,16.5,4.7,30.39,West,271,1.0,5.0,59,0.00,,---,0.00,VWS V13.01,2013-02-02 06:06:00,
2013-02-02 01:11:00,16.4,4.6,30.39,WNW,290,0.0,5.0,59,0.00,,---,0.00,VWS V13.01,2013-02-02 06:11:00,
2013-02-02 01:16:00,16.3,4.5,30.38,WNW,300,2.0,5.0,59,0.00,,---,0.00,VWS V13.01,2013-02-02 06:16:00,
2013-02-02 01:21:00,16.1,4.3,30.39,WNW,297,0.0,5.0,59,0.00,,---,0.00,VWS V13.01,2013-02-02 06:21:00,
2013-02-02 01:26:00,15.7,3.9,30.39,NW,304,0.0,5.0,59,0.00,,---,0.00,VWS V13.01,2013-02-02 06:26:00,
2013-02-02 01:30:00,13.5,3.9,30.38,North,4,0.0,1.0,65,0.00,,SKC,0.00,VWS V14.01,2013-02-02 06:30:00,
2013-02-02 01:31:00,15.3,3.9,30.39,NW,304,0.0,0.0,60,0.00,,---,0.00,VWS V13.01,2013-02-02 06:31:00,
2013-02-02 01:36:00,14.9,3.9,30.39,NW,305,0.0,0.0,61,0.00,,---,0.00,VWS V13.01,2013-02-02 06:36:00,
2013-02-02 01:41:00,15.1,4.4,30.39,West,278,1.0,2.0,62,0.00,,---,0.00,VWS V13.01,2013-02-02 06:41:00,
2013-02-02 01:46:00,15.3,4.3,30.39,West,278,0.0,2.0,61,0.00,,---,0.00,VWS V13.01,2013-02-02 06:46:00,
2013-02-02 01:51:00,15.1,4.1,30.38,West,278,0.0,2.0,61,0.00,,---,0.00,VWS V13.01,2013-02-02 06:51:00,
2013-02-02 01:56:00,14.7,4.1,30.38,West,278,0.0,2.0,62,0.00,,---,0.00,VWS V13.01,2013-02-02 06:56:00,
2013-02-02 02:00:00,11.7,4.4,30.37,SW,215,0.0,1.0,72,0.00,,SKC,0.00,VWS V14.01,2013-02-02 07:00:00,
2013-02-02 02:01:00,14.3,3.7,30.38,West,278,0.0,0.0,62,0.00,,---,0.00,VWS V13.01,2013-02-02 07:01:00,
2013-02-02 02:06:00,14.2,3.9,30.38,WNW,284,0.0,1.0,63,0.00,,---,0.00,VWS V13.01,2013-02-02 07:06:00,
2013-02-02 02:11:00,14.2,4.3,30.38,WNW,284,0.0,1.0,64,0.00,,---,0.00,VWS V13.01,2013-02-02 07:11:00,
2013-02-02 02:16:00,14.2,4.3,30.38,NNW,333,0.0,1.0,64,0.00,,---,0.00,VWS V13.01,2013-02-02 07:16:00,
2013-02-02 02:21:00,14.0,4.1,30.38,North,4,1.0,1.0,64,0.00,,---,0.00,VWS V13.01,2013-02-02 07:21:00,
2013-02-02 02:26:00,13.7,4.1,30.38,North,4,0.0,1.0,65,0.00,,---,0.00,VWS V13.01,2013-02-02 07:26:00,
2013-02-02 02:30:00,11.9,5.5,30.37,WSW,244,0.0,1.0,75,0.00,,SKC,0.00,VWS V14.01,2013-02-02 07:30:00,
2013-02-02 02:31:00,13.5,3.9,30.38,North,5,0.0,0.0,65,0.00,,---,0.00,VWS V13.01,2013-02-02 07:31:00,
2013-02-02 02:36:00,13.1,3.9,30.38,SSE,160,0.0,1.0,66,0.00,,---,0.00,VWS V13.01,2013-02-02 07:36:00,
2013-02-02 02:41:00,12.8,4.2,30.38,SW,215,1.0,1.0,68,0.00,,---,0.00,VWS V13.01,2013-02-02 07:41:00,
2013-02-02 02:46:00,12.5,4.6,30.38,SW,215,0.0,1.0,70,0.00,,---,0.00,VWS V13.01,2013-02-02 07:46:00,
2013-02-02 02:51:00,12.1,4.5,30.37,SW,215,0.0,1.0,71,0.00,,---,0.00,VWS V13.01,2013-02-02 07:51:00,
2013-02-02 02:56:00,11.8,4.2,30.38,SW,215,0.0,1.0,71,0.00,,---,0.00,VWS V13.01,2013-02-02 07:56:00,
2013-02-02 03:00:00,10.7,4.3,30.36,WSW,245,0.0,0.0,75,0.00,,SKC,0.00,VWS V14.01,2013-02-02 08:00:00,
2013-02-02 03:01:00,11.7,4.7,30.37,SW,216,0.0,0.0,73,0.00,,---,0.00,VWS V13.01,2013-02-02 08:01:00,
2013-02-02 03:06:00,11.9,5.2,30.37,WSW,245,0.0,1.0,74,0.00,,---,0.00,VWS V13.01,2013-02-02 08:06:00,
2013-02-02 03:11:00,11.9,5.2,30.38,WSW,245,0.0,1.0,74,0.00,,---,0.00,VWS V13.01,2013-02-02 08:11:00,
2013-02-02 03:16:00,11.9,5.5,30.37,WSW,245,0.0,1.0,75,0.00,,---,0.00,VWS V13.01,2013-02-02 08:16:00,
2013-02-02 03:21:00,12.0,5.6,30.37,WSW,245,0.0,1.0,75,0.00,,---,0.00,VWS V13.01,2013-02-02 08:21:00,
2013-02-02 03:26:00,11.9,5.5,30.37,WSW,245,0.0,1.0,75,0.00,,---,0.00,VWS V13.01,2013-02-02 08:26:00,
2013-02-02 03:30:00,10.4,5.5,30.36,WSW,238,0.0,1.0,80,0.00,,SKC,0.00,VWS V14.01,2013-02-02 08:30:00,
2013-02-02 03:31:00,11.9,5.5,30.37,WSW,244,0.0,0.0,75,0.00,,---,0.00,VWS V13.01,2013-02-02 08:31:00,
2013-02-02 03:36:00,11.9,5.5,30.37,WSW,245,0.0,0.0,75,0.00,,---,0.00,VWS V13.01,2013-02-02 08:36:00,
2013-02-02 03:41:00,11.8,5.4,30.36,WSW,245,0.0,0.0,75,0.00,,---,0.00,VWS V13.01,2013-02-02 08:41:00,
2013-02-02 03:46:00,11.6,4.9,30.36,WSW,245,0.0,0.0,74,0.00,,---,0.00,VWS V13.01,2013-02-02 08:46:00,
2013-02-02 03:51:00,11.4,5.0,30.36,WSW,245,0.0,0.0,75,0.00,,---,0.00,VWS V13.01,2013-02-02 08:51:00,
2013-02-02 03:56:00,11.1,4.7,30.36,WSW,245,0.0,0.0,75,0.00,,---,0.00,VWS V13.01,2013-02-02 08:56:00,
2013-02-02 04:00:00,10.6,4.2,30.36,WSW,244,0.0,0.0,75,0.00,,---,0.00,VWS V13.01,2013-02-02 09:00:00,
2013-02-02 04:05:00,10.3,4.2,30.36,WSW,243,0.0,0.0,76,0.00,,---,0.00,VWS V13.01,2013-02-02 09:05:00,
2013-02-02 04:10:00,10.4,4.6,30.36,WSW,238,1.0,1.0,77,0.00,,---,0.00,VWS V13.01,2013-02-02 09:10:00,
2013-02-02 04:15:00,10.5,5.0,30.36,WSW,238,0.0,1.0,78,0.00,,---,0.00,VWS V13.01,2013-02-02 09:15:00,
2013-02-02 04:20:00,10.3,5.1,30.36,WSW,238,0.0,1.0,79,0.00,,---,0.00,VWS V13.01,2013-02-02 09:20:00,
2013-02-02 04:25:00,10.3,5.4,30.36,WSW,238,0.0,1.0,80,0.00,,---,0.00,VWS V13.01,2013-02-02 09:25:00,
2013-02-02 04:30:00,10.4,5.7,30.36,WSW,238,0.0,0.0,81,0.00,,---,0.00,VWS V13.01,2013-02-02 09:30:00,
2013-02-02 04:35:00,10.4,5.7,30.36,WSW,238,0.0,0.0,81,0.00,,---,0.00,VWS V13.01,2013-02-02 09:35:00,
2013-02-02 04:40:00,10.6,6.2,30.36,WSW,238,0.0,1.0,82,0.00,,---,0.00,VWS V13.01,2013-02-02 09:40:00,
2013-02-02 04:45:00,10.7,6.3,30.36,WSW,238,0.0,1.0,82,0.00,,---,0.00,VWS V13.01,2013-02-02 09:45:00,
2013-02-02 04:50:00,10.8,6.4,30.36,WSW,238,0.0,1.0,82,0.00,,---,0.00,VWS V13.01,2013-02-02 09:50:00,
2013-02-02 04:55:00,10.8,6.4,30.36,WSW,238,0.0,1.0,82,0.00,,---,0.00,VWS V13.01,2013-02-02 09:55:00,
2013-02-02 05:00:00,10.7,6.3,30.36,WSW,238,0.0,0.0,82,0.00,,---,0.00,VWS V13.01,2013-02-02 10:00:00,
2013-02-02 05:05:00,10.5,6.1,30.36,WSW,238,0.0,0.0,82,0.00,,---,0.00,VWS V13.01,2013-02-02 10:05:00,
2013-02-02 05:10:00,10.6,6.2,30.36,WSW,238,0.0,1.0,82,0.00,,---,0.00,VWS V13.01,2013-02-02 10:10:00,
2013-02-02 05:15:00,10.5,6.1,30.36,WSW,238,0.0,1.0,82,0.00,,---,0.00,VWS V13.01,2013-02-02 10:15:00,
2013-02-02 05:20:00,10.4,6.3,30.36,WSW,238,0.0,1.0,83,0.00,,---,0.00,VWS V13.01,2013-02-02 10:20:00,
2013-02-02 05:25:00,10.4,6.3,30.36,WSW,238,0.0,1.0,83,0.00,,---,0.00,VWS V13.01,2013-02-02 10:25:00,
2013-02-02 05:30:00,10.6,6.7,30.36,WSW,238,0.0,0.0,84,0.00,,---,0.00,VWS V13.01,2013-02-02 10:30:00,
2013-02-02 05:35:00,10.6,6.5,30.36,SSW,198,2.0,2.0,83,0.00,,---,0.00,VWS V13.01,2013-02-02 10:35:00,
2013-02-02 05:40:00,10.7,6.8,30.36,SSW,204,1.0,3.0,84,0.00,,---,0.00,VWS V13.01,2013-02-02 10:40:00,
2013-02-02 05:45:00,10.9,7.3,30.36,SW,228,0.0,3.0,85,0.00,,---,0.00,VWS V13.01,2013-02-02 10:45:00,
2013-02-02 05:50:00,11.0,7.4,30.36,SW,228,0.0,3.0,85,0.00,,---,0.00,VWS V13.01,2013-02-02 10:50:00,
2013-02-02 05:55:00,11.0,7.1,30.36,SW,228,0.0,3.0,84,0.00,,---,0.00,VWS V13.01,2013-02-02 10:55:00,
2013-02-02 06:00:00,11.0,7.1,30.35,SW,229,0.0,0.0,84,0.00,,---,0.00,VWS V13.01,2013-02-02 11:00:00,
2013-02-02 06:05:00,11.0,7.1,30.35,SW,228,0.0,0.0,84,0.00,,---,0.00,VWS V13.01,2013-02-02 11:05:00,
2013-02-02 06:10:00,10.9,7.0,30.35,SW,228,0.0,0.0,84,0.00,,---,0.00,VWS V13.01,2013-02-02 11:10:00,
2013-02-02 06:15:00,11.0,7.4,30.35,SW,229,0.0,0.0,85,0.00,,---,0.00,VWS V13.01,2013-02-02 11:15:00,
2013-02-02 06:20:00,11.0,7.4,30.35,SW,228,0.0,0.0,85,0.00,,---,0.00,VWS V13.01,2013-02-02 11:20:00,
2013-02-02 06:25:00,11.0,7.4,30.35,SW,228,0.0,1.0,85,0.00,,---,0.00,VWS V13.01,2013-02-02 11:25:00,
2013-02-02 06:30:00,11.0,7.1,30.35,SW,229,0.0,0.0,84,0.00,,---,0.00,VWS V13.01,2013-02-02 11:30:00,
2013-02-02 06:35:00,10.9,7.3,30.35,SW,228,0.0,0.0,85,0.00,,---,0.00,VWS V13.01,2013-02-02 11:35:00,
2013-02-02 06:40:00,10.9,7.3,30.35,SW,228,0.0,0.0,85,0.00,,---,0.00,VWS V13.01,2013-02-02 11:40:00,
2013-02-02 06:45:00,11.0,7.4,30.36,SW,228,0.0,0.0,85,0.00,,---,0.00,VWS V13.01,2013-02-02 11:45:00,
2013-02-02 06:50:00,11.1,7.5,30.36,SW,227,0.0,0.0,85,0.00,,---,0.00,VWS V13.01,2013-02-02 11:50:00,
2013-02-02 06:55:00,11.3,7.9,30.36,SW,228,0.0,0.0,86,0.00,,---,0.00,VWS V13.01,2013-02-02 11:55:00,
2013-02-02 07:00:00,11.3,7.9,30.36,SW,228,0.0,0.0,86,0.00,,---,0.00,VWS V13.01,2013-02-02 12:00:00,
2013-02-02 07:05:00,11.4,8.0,30.36,SW,228,0.0,0.0,86,0.00,,---,0.00,VWS V13.01,2013-02-02 12:05:00,
2013-02-02 07:10:00,11.4,8.0,30.36,SW,229,0.0,0.0,86,0.00,,---,0.00,VWS V13.01,2013-02-02 12:10:00,
2013-02-02 07:15:00,11.2,7.6,30.36,SSE,151,0.0,0.0,85,0.00,,---,0.00,VWS V13.01,2013-02-02 12:15:00,
2013-02-02 07:20:00,11.1,7.7,30.36,SSE,152,0.0,0.0,86,0.00,,---,0.00,VWS V13.01,2013-02-02 12:20:00,
2013-02-02 07:25:00,11.0,7.6,30.36,SSE,153,0.0,0.0,86,0.00,,---,0.00,VWS V13.01,2013-02-02 12:25:00,
2013-02-02 07:30:00,10.9,7.5,30.36,SSE,153,0.0,0.0,86,0.00,,---,0.00,VWS V13.01,2013-02-02 12:30:00,
2013-02-02 07:35:00,11.0,7.6,30.36,SSE,148,0.0,0.0,86,0.00,,---,0.00,VWS V13.01,2013-02-02 12:35:00,
2013-02-02 07:40:00,11.2,7.8,30.37,SSE,148,0.0,0.0,86,0.00,,---,0.00,VWS V13.01,2013-02-02 12:40:00,
2013-02-02 07:45:00,11.4,8.0,30.37,SSE,148,0.0,0.0,86,0.00,,---,0.00,VWS V13.01,2013-02-02 12:45:00,
2013-02-02 07:50:00,11.7,8.3,30.37,SSE,150,0.0,0.0,86,0.00,,---,0.00,VWS V13.01,2013-02-02 12:50:00,
2013-02-02 07:55:00,12.3,8.9,30.36,South,169,0.0,0.0,86,0.00,,---,0.00,VWS V13.01,2013-02-02 12:55:00,
2013-02-02 08:00:00,13.0,9.6,30.36,South,169,0.0,0.0,86,0.00,,---,0.00,VWS V13.01,2013-02-02 13:00:00,
2013-02-02 08:05:00,13.6,9.9,30.36,South,169,0.0,0.0,85,0.00,,---,0.00,VWS V13.01,2013-02-02 13:05:00,
2013-02-02 08:10:00,14.4,10.5,30.36,South,169,0.0,0.0,84,0.00,,---,0.00,VWS V13.01,2013-02-02 13:10:00,
2013-02-02 08:15:00,15.1,11.1,30.35,SE,131,0.0,1.0,84,0.00,,---,0.00,VWS V13.01,2013-02-02 13:15:00,
2013-02-02 08:20:00,15.4,10.9,30.35,SE,143,0.0,1.0,82,0.00,,---,0.00,VWS V13.01,2013-02-02 13:20:00,
2013-02-02 08:25:00,15.7,11.2,30.35,SE,145,0.0,1.0,82,0.00,,---,0.00,VWS V13.01,2013-02-02 13:25:00,
2013-02-02 08:30:00,15.9,10.8,30.35,ESE,111,0.0,0.0,80,0.00,,---,0.00,VWS V13.01,2013-02-02 13:30:00,
2013-02-02 08:35:00,15.9,10.3,30.35,SSE,165,1.0,2.0,78,0.00,,---,0.00,VWS V13.01,2013-02-02 13:35:00,
2013-02-02 08:40:00,16.0,10.4,30.35,SE,143,0.0,2.0,78,0.00,,---,0.00,VWS V13.01,2013-02-02 13:40:00,
2013-02-02 08:45:00,16.3,10.9,30.35,SW,224,2.0,2.0,79,0.00,,---,0.00,VWS V13.01,2013-02-02 13:45:00,
2013-02-02 08:50:00,16.3,10.4,30.35,SW,228,2.0,2.0,77,0.00,,---,0.00,VWS V13.01,2013-02-02 13:50:00,
2013-02-02 08:55:00,16.4,10.5,30.35,SW,229,1.0,2.0,77,0.00,,---,0.00,VWS V13.01,2013-02-02 13:55:00,
2013-02-02 09:00:00,16.6,10.7,30.35,SSW,203,2.0,2.0,77,0.00,,---,0.00,VWS V13.01,2013-02-02 14:00:00,
2013-02-02 09:05:00,16.8,10.6,30.35,SW,231,4.0,5.0,76,0.00,,---,0.00,VWS V13.01,2013-02-02 14:05:00,
2013-02-02 09:10:00,16.9,9.8,30.35,SW,215,5.0,7.0,73,0.00,,---,0.00,VWS V13.01,2013-02-02 14:10:00,
2013-02-02 09:15:00,17.0,9.6,30.34,WSW,238,4.0,8.0,72,0.00,,---,0.00,VWS V13.01,2013-02-02 14:15:00,
2013-02-02 09:20:00,17.3,10.1,30.35,SW,222,6.0,8.0,73,0.00,,---,0.00,VWS V13.01,2013-02-02 14:20:00,
2013-02-02 09:25:00,17.4,9.9,30.35,SW,215,4.0,8.0,72,0.00,,---,0.00,VWS V13.01,2013-02-02 14:25:00,
2013-02-02 09:30:00,17.7,10.5,30.35,SW,229,3.0,5.0,73,0.00,,---,0.00,VWS V13.01,2013-02-02 14:30:00,
2013-02-02 09:35:00,17.8,10.3,30.34,WSW,242,4.0,6.0,72,0.00,,---,0.00,VWS V13.01,2013-02-02 14:35:00,
2013-02-02 09:40:00,17.9,10.4,30.34,SSW,207,4.0,6.0,72,0.00,,---,0.00,VWS V13.01,2013-02-02 14:40:00,
2013-02-02 09:45:00,18.0,10.5,30.34,SSW,205,3.0,6.0,72,0.00,,---,0.00,VWS V13.01,2013-02-02 14:45:00,
2013-02-02 09:50:00,18.1,10.6,30.33,SW,231,4.0,6.0,72,0.00,,---,0.00,VWS V13.01,2013-02-02 14:50:00,
2013-02-02 09:55:00,18.3,10.8,30.33,SW,225,4.0,6.0,72,0.00,,---,0.00,VWS V13.01,2013-02-02 14:55:00,
2013-02-02 10:00:00,18.5,10.7,30.33,SW,215,2.0,2.0,71,0.00,,---,0.00,VWS V13.01,2013-02-02 15:00:00,
2013-02-02 10:05:00,18.7,10.9,30.33,SW,231,4.0,4.0,71,0.00,,---,0.00,VWS V13.01,2013-02-02 15:05:00,
2013-02-02 10:10:00,18.9,11.1,30.33,SSW,203,4.0,4.0,71,0.00,,---,0.00,VWS V13.01,2013-02-02 15:10:00,
2013-02-02 10:15:00,19.0,10.8,30.33,WSW,240,5.0,6.0,70,0.00,,---,0.00,VWS V13.01,2013-02-02 15:15:00,
2013-02-02 10:20:00,19.2,10.7,30.32,SW,221,3.0,6.0,69,0.00,,---,0.00,VWS V13.01,2013-02-02 15:20:00,
2013-02-02 10:25:00,19.4,11.2,30.32,SSW,195,1.0,6.0,70,0.00,,---,0.00,VWS V13.01,2013-02-02 15:25:00,
2013-02-02 10:30:00,19.7,11.2,30.32,SW,219,2.0,3.0,69,0.00,,---,0.00,VWS V13.01,2013-02-02 15:30:00,
2013-02-02 10:35:00,19.9,11.4,30.32,SW,221,6.0,6.0,69,0.00,,---,0.00,VWS V13.01,2013-02-02 15:35:00,
2013-02-02 10:40:00,20.1,10.9,30.32,SSE,155,3.0,6.0,67,0.00,,---,0.00,VWS V13.01,2013-02-02 15:40:00,
2013-02-02 10:45:00,20.2,10.7,30.32,SSW,208,2.0,6.0,66,0.00,,---,0.00,VWS V13.01,2013-02-02 15:45:00,
2013-02-02 10:50:00,20.5,11.3,30.31,SSE,158,1.0,6.0,67,0.00,,---,0.00,VWS V13.01,2013-02-02 15:50:00,
2013-02-02 10:55:00,20.7,11.5,30.31,SSW,193,1.0,6.0,67,0.00,,---,0.00,VWS V13.01,2013-02-02 15:55:00,
2013-02-02 11:00:00,20.9,11.7,30.31,SW,215,1.0,2.0,67,0.00,,---,0.00,VWS V13.01,2013-02-02 16:00:00,
2013-02-02 11:05:00,21.1,11.5,30.30,SSW,212,1.0,4.0,66,0.00,,---,0.00,VWS V13.01,2013-02-02 16:05:00,
2013-02-02 11:10:00,21.3,11.4,30.30,SSW,207,2.0,4.0,65,0.00,,---,0.00,VWS V13.01,2013-02-02 16:10:00,
2013-02-02 11:15:00,21.4,11.5,30.30,SE,137,1.0,4.0,65,0.00,,---,0.00,VWS V13.01,2013-02-02 16:15:00,
2013-02-02 11:20:00,21.7,11.4,30.30,SW,217,2.0,4.0,64,0.00,,---,0.00,VWS V13.01,2013-02-02 16:20:00,
2013-02-02 11:25:00,21.8,11.5,30.29,SSW,202,2.0,4.0,64,0.00,,---,0.00,VWS V13.01,2013-02-02 16:25:00,
2013-02-02 11:30:00,22.0,11.7,30.29,SW,226,3.0,3.0,64,0.00,,---,0.00,VWS V13.01,2013-02-02 16:30:00,
2013-02-02 11:35:00,22.1,11.4,30.28,SW,224,4.0,4.0,63,0.00,,---,0.00,VWS V13.01,2013-02-02 16:35:00,
2013-02-02 11:40:00,22.3,11.6,30.28,SE,128,4.0,5.0,63,0.00,,---,0.00,VWS V13.01,2013-02-02 16:40:00,
2013-02-02 11:45:00,22.5,11.8,30.27,SSE,166,3.0,6.0,63,0.00,,---,0.00,VWS V13.01,2013-02-02 16:45:00,
2013-02-02 11:50:00,22.6,11.6,30.27,SSW,201,6.0,7.0,62,0.00,,---,0.00,VWS V13.01,2013-02-02 16:50:00,
2013-02-02 11:55:00,22.6,11.6,30.27,SSE,167,3.0,7.0,62,0.00,,---,0.00,VWS V13.01,2013-02-02 16:55:00,
2013-02-02 12:00:00,22.8,11.0,30.26,SW,214,5.0,5.0,60,0.00,,---,0.00,VWS V13.01,2013-02-02 17:00:00,
2013-02-02 12:05:00,22.9,10.7,30.26,SSW,203,3.0,7.0,59,0.00,,---,0.00,VWS V13.01,2013-02-02 17:05:00,
2013-02-02 12:10:00,23.0,11.2,30.26,SSW,197,2.0,8.0,60,0.00,,---,0.00,VWS V13.01,2013-02-02 17:10:00,
2013-02-02 12:15:00,23.2,11.0,30.25,South,176,1.0,9.0,59,0.00,,---,0.00,VWS V13.01,2013-02-02 17:15:00,
2013-02-02 12:20:00,23.5,11.7,30.25,WSW,239,4.0,9.0,60,0.00,,---,0.00,VWS V13.01,2013-02-02 17:20:00,
2013-02-02 12:25:00,23.7,11.9,30.25,SW,225,9.0,11.0,60,0.00,,---,0.00,VWS V13.01,2013-02-02 17:25:00,
2013-02-02 12:30:00,23.9,12.4,30.24,SW,229,5.0,5.0,61,0.00,,---,0.00,VWS V13.01,2013-02-02 17:30:00,
2013-02-02 12:35:00,23.8,13.1,30.24,SSW,209,7.0,13.0,63,0.00,,---,0.00,VWS V13.01,2013-02-02 17:35:00,
2013-02-02 12:40:00,23.9,13.5,30.23,South,187,4.0,13.0,64,0.00,,---,0.00,VWS V13.01,2013-02-02 17:40:00,
2013-02-02 12:45:00,24.0,14.0,30.22,SW,219,3.0,13.0,65,0.00,,---,0.00,VWS V13.01,2013-02-02 17:45:00,
2013-02-02 12:50:00,24.1,14.1,30.22,SW,215,6.0,13.0,65,0.00,,---,0.00,VWS V13.01,2013-02-02 17:50:00,
2013-02-02 12:55:00,24.0,14.6,30.21,SW,224,3.0,13.0,67,0.00,,---,0.00,VWS V13.01,2013-02-02 17:55:00,
2013-02-02 13:00:00,24.0,15.0,30.21,SW,219,3.0,4.0,68,0.00,,---,0.00,VWS V13.01,2013-02-02 18:00:00,
2013-02-02 13:05:00,24.1,15.1,30.21,SW,220,4.0,10.0,68,0.00,,---,0.00,VWS V13.01,2013-02-02 18:05:00,
2013-02-02 13:10:00,24.0,15.0,30.20,SW,226,6.0,10.0,68,0.00,,---,0.00,VWS V13.01,2013-02-02 18:10:00,
2013-02-02 13:15:00,24.1,15.8,30.20,SSE,148,2.0,10.0,70,0.00,,---,0.00,VWS V13.01,2013-02-02 18:15:00,
2013-02-02 13:20:00,24.3,15.6,30.20,WSW,240,4.0,10.0,69,0.00,,---,0.00,VWS V13.01,2013-02-02 18:20:00,
2013-02-02 13:25:00,24.4,15.7,30.20,SW,215,1.0,10.0,69,0.00,,---,0.00,VWS V13.01,2013-02-02 18:25:00,
2013-02-02 13:30:00,24.9,16.5,30.20,SE,129,3.0,4.0,70,0.00,,---,0.00,VWS V13.01,2013-02-02 18:30:00,
2013-02-02 13:35:00,25.0,16.3,30.19,South,176,1.0,5.0,69,0.00,,---,0.00,VWS V13.01,2013-02-02 18:35:00,
2013-02-02 13:40:00,25.2,16.5,30.19,SSE,159,2.0,5.0,69,0.00,,---,0.00,VWS V13.01,2013-02-02 18:40:00,
2013-02-02 13:45:00,25.2,15.8,30.18,WSW,237,2.0,6.0,67,0.00,,---,0.00,VWS V13.01,2013-02-02 18:45:00,
2013-02-02 13:50:00,25.3,16.2,30.18,SW,227,5.0,6.0,68,0.00,,---,0.00,VWS V13.01,2013-02-02 18:50:00,
2013-02-02 13:55:00,25.3,15.9,30.18,ESE,107,4.0,6.0,67,0.00,,---,0.00,VWS V13.01,2013-02-02 18:55:00,
2013-02-02 14:00:00,25.4,16.0,30.17,SSW,212,2.0,2.0,67,0.00,,---,0.00,VWS V13.01,2013-02-02 19:00:00,
2013-02-02 14:05:00,25.5,16.1,30.17,ESE,102,4.0,4.0,67,0.00,,---,0.00,VWS V13.01,2013-02-02 19:05:00,
2013-02-02 14:10:00,25.6,15.5,30.17,South,176,4.0,5.0,65,0.00,,---,0.00,VWS V13.01,2013-02-02 19:10:00,
2013-02-02 14:15:00,25.7,14.9,30.17,SSE,166,5.0,6.0,63,0.00,,---,0.00,VWS V13.01,2013-02-02 19:15:00,
2013-02-02 14:20:00,25.8,14.6,30.17,South,170,1.0,7.0,62,0.00,,---,0.00,VWS V13.01,2013-02-02 19:20:00,
2013-02-02 14:25:00,25.7,14.9,30.16,WSW,245,3.0,10.0,63,0.00,,---,0.00,VWS V13.01,2013-02-02 19:25:00,
2013-02-02 14:30:00,25.8,15.3,30.17,SSE,148,2.0,3.0,64,0.00,,---,0.00,VWS V13.01,2013-02-02 19:30:00,
2013-02-02 14:35:00,25.7,14.9,30.17,SE,134,3.0,12.0,63,0.00,,---,0.00,VWS V13.01,2013-02-02 19:35:00,
2013-02-02 14:40:00,25.7,14.9,30.16,SSE,148,2.0,12.0,63,0.00,,---,0.00,VWS V13.01,2013-02-02 19:40:00,
2013-02-02 14:45:00,25.8,15.3,30.16,SW,231,9.0,12.0,64,0.00,,---,0.00,VWS V13.01,2013-02-02 19:45:00,
2013-02-02 14:50:00,25.8,15.3,30.16,WSW,250,10.0,13.0,64,0.00,,---,0.00,VWS V13.01,2013-02-02 19:50:00,
2013-02-02 14:55:00,25.5,15.7,30.16,SSW,207,7.0,15.0,66,0.00,,---,0.00,VWS V13.01,2013-02-02 19:55:00,
2013-02-02 15:00:00,25.7,15.6,30.15,SW,218,5.0,5.0,65,0.00,,---,0.00,VWS V13.01,2013-02-02 20:00:00,
2013-02-02 15:05:00,25.9,15.8,30.15,SSW,211,7.0,10.0,65,0.00,,---,0.00,VWS V13.01,2013-02-02 20:05:00,
2013-02-02 15:10:00,26.0,15.9,30.15,SW,216,3.0,10.0,65,0.00,,---,0.00,VWS V13.01,2013-02-02 20:10:00,
2013-02-02 15:15:00,26.1,15.6,30.15,SW,215,2.0,10.0,64,0.00,,---,0.00,VWS V13.01,2013-02-02 20:15:00,
2013-02-02 15:20:00,26.3,15.4,30.14,SSW,208,0.0,10.0,63,0.00,,---,0.00,VWS V13.01,2013-02-02 20:20:00,
2013-02-02 15:25:00,26.5,16.0,30.14,SSW,210,4.0,10.0,64,0.00,,---,0.00,VWS V13.01,2013-02-02 20:25:00,
2013-02-02 15:30:00,26.3,16.1,30.14,SW,221,6.0,7.0,65,0.00,,---,0.00,VWS V13.01,2013-02-02 20:30:00,
2013-02-02 15:35:00,26.1,16.3,30.14,SW,222,10.0,11.0,66,0.00,,---,0.00,VWS V13.01,2013-02-02 20:35:00,
2013-02-02 15:40:00,26.1,17.0,30.14,SW,217,6.0,11.0,68,0.00,,---,0.00,VWS V13.01,2013-02-02 20:40:00,
2013-02-02 15:45:00,26.1,17.0,30.14,SW,224,4.0,11.0,68,0.00,,---,0.00,VWS V13.01,2013-02-02 20:45:00,
2013-02-02 15:50:00,26.2,17.4,30.14,SSW,201,4.0,11.0,69,0.00,,---,0.00,VWS V13.01,2013-02-02 20:50:00,
2013-02-02 15:55:00,26.1,18.0,30.14,SW,219,6.0,13.0,71,0.00,,---,0.00,VWS V13.01,2013-02-02 20:55:00,
2013-02-02 16:00:00,26.1,18.0,30.13,SSW,212,4.0,13.0,71,0.00,,---,0.00,VWS V13.01,2013-02-02 21:00:00,
2013-02-02 16:05:00,26.3,17.5,30.12,South,190,4.0,9.0,69,0.00,,---,0.00,VWS V13.01,2013-02-02 21:05:00,
2013-02-02 16:10:00,26.7,17.9,30.11,ESE,116,6.0,9.0,69,0.00,,---,0.00,VWS V13.01,2013-02-02 21:10:00,
2013-02-02 16:15:00,27.0,17.5,30.10,South,188,1.0,9.0,67,0.00,,---,0.00,VWS V13.01,2013-02-02 21:15:00,
2013-02-02 16:20:00,27.2,17.0,30.09,ESE,115,3.0,9.0,65,0.00,,---,0.00,VWS V13.01,2013-02-02 21:20:00,
2013-02-02 16:25:00,27.5,16.9,30.09,South,171,1.0,9.0,64,0.00,,---,0.00,VWS V13.01,2013-02-02 21:25:00,
2013-02-02 16:30:00,27.7,16.4,30.09,South,183,4.0,9.0,62,0.00,,---,0.00,VWS V13.01,2013-02-02 21:30:00,
2013-02-02 16:35:00,27.9,16.2,30.09,SW,224,4.0,7.0,61,0.00,,---,0.00,VWS V13.01,2013-02-02 21:35:00,
2013-02-02 16:40:00,28.0,16.3,30.09,SW,228,6.0,17.0,61,0.00,,---,0.00,VWS V13.01,2013-02-02 21:40:00,
2013-02-02 16:45:00,28.1,17.1,30.09,SW,217,12.0,18.0,63,0.00,,---,0.00,VWS V13.01,2013-02-02 21:45:00,
2013-02-02 16:50:00,27.9,18.0,30.09,SW,221,5.0,18.0,66,0.00,,---,0.00,VWS V13.01,2013-02-02 21:50:00,
2013-02-02 16:55:00,27.6,19.1,30.09,WSW,237,7.0,18.0,70,0.00,,---,0.00,VWS V13.01,2013-02-02 21:55:00,
2013-02-02 17:00:00,27.4,19.6,30.09,SW,226,6.0,18.0,72,0.00,,---,0.00,VWS V13.01,2013-02-02 22:00:00,
2013-02-02 17:05:00,27.1,19.9,30.09,SW,229,8.0,14.0,74,0.00,,---,0.00,VWS V13.01,2013-02-02 22:05:00,
2013-02-02 17:10:00,27.0,19.8,30.09,SSW,196,4.0,14.0,74,0.00,,---,0.00,VWS V13.01,2013-02-02 22:10:00,
2013-02-02 17:15:00,27.0,20.1,30.09,South,180,3.0,14.0,75,0.00,,---,0.00,VWS V13.01,2013-02-02 22:15:00,
2013-02-02 17:20:00,26.8,20.6,30.09,SSW,198,5.0,14.0,77,0.00,,---,0.00,VWS V13.01,2013-02-02 22:20:00,
2013-02-02 17:25:00,26.5,20.9,30.09,SE,132,4.0,14.0,79,0.00,,---,0.00,VWS V13.01,2013-02-02 22:25:00,
2013-02-02 17:30:00,26.4,21.1,30.09,SW,221,3.0,14.0,80,0.00,,---,0.00,VWS V13.01,2013-02-02 22:30:00,
2013-02-02 17:35:00,26.2,21.5,30.09,SW,214,3.0,13.0,82,0.00,,---,0.00,VWS V13.01,2013-02-02 22:35:00,
2013-02-02 17:40:00,26.1,21.6,30.09,SSW,208,3.0,13.0,83,0.00,,---,0.00,VWS V13.01,2013-02-02 22:40:00,
2013-02-02 17:45:00,25.9,21.7,30.09,SW,227,6.0,13.0,84,0.00,,---,0.00,VWS V13.01,2013-02-02 22:45:00,
2013-02-02 17:50:00,25.8,21.9,30.09,SW,221,2.0,13.0,85,0.00,,---,0.00,VWS V13.01,2013-02-02 22:50:00,
2013-02-02 17:55:00,25.8,22.2,30.09,SW,224,4.0,13.0,86,0.00,,---,0.00,VWS V13.01,2013-02-02 22:55:00,
2013-02-02 18:00:00,25.8,22.2,30.09,SW,219,6.0,13.0,86,0.00,,---,0.00,VWS V13.01,2013-02-02 23:00:00,
2013-02-02 18:05:00,25.8,22.2,30.08,ESE,103,3.0,7.0,86,0.00,,---,0.00,VWS V13.01,2013-02-02 23:05:00,
2013-02-02 18:10:00,25.7,22.1,30.08,SW,219,2.0,7.0,86,0.00,,---,0.00,VWS V13.01,2013-02-02 23:10:00,
2013-02-02 18:15:00,25.8,22.2,30.08,SSW,203,1.0,7.0,86,0.00,,---,0.00,VWS V13.01,2013-02-02 23:15:00,
2013-02-02 18:20:00,25.8,22.2,30.08,SW,215,2.0,7.0,86,0.00,,---,0.00,VWS V13.01,2013-02-02 23:20:00,
2013-02-02 18:25:00,25.8,22.2,30.08,SW,219,0.0,7.0,86,0.00,,---,0.00,VWS V13.01,2013-02-02 23:25:00,
2013-02-02 18:30:00,25.8,22.2,30.08,SE,141,1.0,7.0,86,0.00,,---,0.00,VWS V13.01,2013-02-02 23:30:00,
2013-02-02 18:35:00,25.8,22.2,30.08,SSW,204,1.0,3.0,86,0.00,,---,0.00,VWS V13.01,2013-02-02 23:35:00,
2013-02-02 18:40:00,25.8,22.2,30.08,SW,219,2.0,3.0,86,0.00,,---,0.00,VWS V13.01,2013-02-02 23:40:00,
2013-02-02 18:45:00,25.9,22.3,30.08,SSW,203,2.0,5.0,86,0.00,,---,0.00,VWS V13.01,2013-02-02 23:45:00,
2013-02-02 18:50:00,25.8,22.2,30.08,SSW,212,2.0,5.0,86,0.00,,---,0.00,VWS V13.01,2013-02-02 23:50:00,
2013-02-02 18:55:00,25.9,22.3,30.08,SSW,210,2.0,5.0,86,0.00,,---,0.00,VWS V13.01,2013-02-02 23:55:00,
2013-02-02 19:00:00,25.8,22.2,30.08,SSW,211,0.0,5.0,86,0.00,,---,0.00,VWS V13.01,2013-02-03 00:00:00,
2013-02-02 19:05:00,25.8,22.2,30.08,SSW,204,0.0,0.0,86,0.00,,---,0.00,VWS V13.01,2013-02-03 00:05:00,
2013-02-02 19:10:00,25.9,22.3,30.08,SSW,207,1.0,3.0,86,0.00,,---,0.00,VWS V13.01,2013-02-03 00:10:00,
2013-02-02 19:15:00,26.0,22.4,30.08,South,188,0.0,3.0,86,0.00,,---,0.00,VWS V13.01,2013-02-03 00:15:00,
2013-02-02 19:20:00,26.1,22.5,30.08,SW,225,0.0,3.0,86,0.00,,---,0.00,VWS V13.01,2013-02-03 00:20:00,
2013-02-02 19:25:00,26.2,22.6,30.08,SW,226,0.0,3.0,86,0.00,,---,0.00,VWS V13.01,2013-02-03 00:25:00,
2013-02-02 19:30:00,26.3,22.7,30.08,SW,223,0.0,7.0,86,0.00,,---,0.00,VWS V13.01,2013-02-03 00:30:00,
2013-02-02 19:35:00,26.4,22.8,30.08,SW,222,2.0,4.0,86,0.00,,---,0.00,VWS V13.01,2013-02-03 00:35:00,
2013-02-02 19:40:00,26.4,22.8,30.07,SSW,195,2.0,4.0,86,0.00,,---,0.00,VWS V13.01,2013-02-03 00:40:00,
2013-02-02 19:45:00,26.5,22.9,30.07,WSW,242,3.0,4.0,86,0.00,,---,0.00,VWS V13.01,2013-02-03 00:45:00,
2013-02-02 19:50:00,26.5,23.2,30.07,SW,229,1.0,4.0,87,0.00,,---,0.00,VWS V13.01,2013-02-03 00:50:00,
2013-02-02 19:55:00,26.6,23.3,30.07,SW,228,1.0,6.0,87,0.00,,---,0.00,VWS V13.01,2013-02-03 00:55:00,
2013-02-02 20:00:00,26.6,23.3,30.07,WSW,243,1.0,6.0,87,0.00,,---,0.00,VWS V13.01,2013-02-03 01:00:00,
2013-02-02 20:04:00,26.7,23.6,30.07,SSW,204,0.0,5.0,88,0.00,,---,0.00,VWS V13.01,2013-02-03 01:04:00,
2013-02-02 20:09:00,26.7,23.6,30.06,South,187,0.0,5.0,88,0.00,,---,0.00,VWS V13.01,2013-02-03 01:09:00,
2013-02-02 20:14:00,26.8,23.7,30.06,SSW,204,2.0,5.0,88,0.00,,---,0.00,VWS V13.01,2013-02-03 01:14:00,
2013-02-02 20:19:00,26.9,23.8,30.06,SSW,195,2.0,6.0,88,0.00,,---,0.00,VWS V13.01,2013-02-03 01:19:00,
2013-02-02 20:24:00,27.0,23.9,30.06,South,179,3.0,6.0,88,0.00,,---,0.00,VWS V13.01,2013-02-03 01:24:00,
2013-02-02 20:29:00,27.0,23.9,30.06,SW,229,2.0,6.0,88,0.00,,---,0.00,VWS V13.01,2013-02-03 01:29:00,
2013-02-02 20:30:00,27.4,24.3,30.04,SSW,198,0.0,2.0,88,0.00,,SKC,0.00,VWS V14.01,2013-02-03 01:30:00,
2013-02-02 20:34:00,27.1,24.3,30.05,SW,225,3.0,8.0,89,0.00,,---,0.00,VWS V13.01,2013-02-03 01:34:00,
2013-02-02 20:39:00,27.1,24.3,30.05,SSW,197,3.0,8.0,89,0.00,,---,0.00,VWS V13.01,2013-02-03 01:39:00,
2013-02-02 20:44:00,27.2,24.4,30.05,SSW,212,5.0,8.0,89,0.00,,---,0.00,VWS V13.01,2013-02-03 01:44:00,
2013-02-02 20:49:00,27.2,24.4,30.05,SSE,166,0.0,8.0,89,0.00,,---,0.00,VWS V13.01,2013-02-03 01:49:00,
2013-02-02 20:54:00,27.3,24.5,30.05,SW,219,1.0,8.0,89,0.00,,---,0.00,VWS V13.01,2013-02-03 01:54:00,
2013-02-02 20:59:00,27.3,24.5,30.05,SW,215,0.0,8.0,89,0.00,,---,0.00,VWS V13.01,2013-02-03 01:59:00,
2013-02-02 21:00:00,26.8,23.7,30.03,SW,217,0.0,0.0,88,0.00,,SKC,0.00,VWS V14.01,2013-02-03 02:00:00,
2013-02-02 21:04:00,27.3,24.5,30.05,SSW,211,0.0,2.0,89,0.00,,---,0.00,VWS V13.01,2013-02-03 02:04:00,
2013-02-02 21:09:00,27.4,24.6,30.05,SW,217,0.0,2.0,89,0.00,,---,0.00,VWS V13.01,2013-02-03 02:09:00,
2013-02-02 21:14:00,27.4,24.6,30.04,SSW,205,0.0,2.0,89,0.00,,---,0.00,VWS V13.01,2013-02-03 02:14:00,
2013-02-02 21:19:00,27.4,24.3,30.04,SE,129,0.0,2.0,88,0.00,,---,0.00,VWS V13.01,2013-02-03 02:19:00,
2013-02-02 21:24:00,27.4,24.3,30.04,SSE,148,0.0,2.0,88,0.00,,---,0.00,VWS V13.01,2013-02-03 02:24:00,
2013-02-02 21:29:00,27.4,24.3,30.04,SSW,198,0.0,2.0,88,0.00,,---,0.00,VWS V13.01,2013-02-03 02:29:00,
2013-02-02 21:30:00,26.5,23.7,30.02,SE,131,0.0,0.0,89,0.00,,SKC,0.00,VWS V14.01,2013-02-03 02:30:00,
2013-02-02 21:34:00,27.3,24.2,30.04,SSW,212,0.0,0.0,88,0.00,,---,0.00,VWS V13.01,2013-02-03 02:34:00,
2013-02-02 21:39:00,27.3,24.2,30.03,SW,214,0.0,0.0,88,0.00,,---,0.00,VWS V13.01,2013-02-03 02:39:00,
2013-02-02 21:44:00,27.2,24.1,30.03,SW,221,0.0,0.0,88,0.00,,---,0.00,VWS V13.01,2013-02-03 02:44:00,
2013-02-02 21:49:00,27.1,24.0,30.03,SSW,193,0.0,0.0,88,0.00,,---,0.00,VWS V13.01,2013-02-03 02:49:00,
2013-02-02 21:54:00,26.9,23.8,30.03,SSW,211,0.0,0.0,88,0.00,,---,0.00,VWS V13.01,2013-02-03 02:54:00,
2013-02-02 21:59:00,26.8,23.7,30.03,SW,215,0.0,0.0,88,0.00,,---,0.00,VWS V13.01,2013-02-03 02:59:00,
2013-02-02 22:00:00,26.2,23.7,30.02,SE,131,0.0,0.0,90,0.00,,SKC,0.00,VWS V14.01,2013-02-03 03:00:00,
2013-02-02 22:04:00,26.8,24.0,30.03,SW,221,0.0,0.0,89,0.00,,---,0.00,VWS V13.01,2013-02-03 03:04:00,
2013-02-02 22:09:00,26.8,24.0,30.02,SW,218,0.0,0.0,89,0.00,,---,0.00,VWS V13.01,2013-02-03 03:09:00,
2013-02-02 22:14:00,26.7,23.9,30.02,SW,221,0.0,0.0,89,0.00,,---,0.00,VWS V13.01,2013-02-03 03:14:00,
2013-02-02 22:19:00,26.6,23.8,30.02,SW,215,0.0,0.0,89,0.00,,---,0.00,VWS V13.01,2013-02-03 03:19:00,
2013-02-02 22:24:00,26.5,23.7,30.02,SE,131,0.0,0.0,89,0.00,,---,0.00,VWS V13.01,2013-02-03 03:24:00,
2013-02-02 22:29:00,26.5,23.7,30.02,SE,131,0.0,0.0,89,0.00,,---,0.00,VWS V13.01,2013-02-03 03:29:00,
2013-02-02 22:30:00,26.2,23.7,30.02,NNE,26,0.0,0.0,90,0.00,,SKC,0.00,VWS V14.01,2013-02-03 03:30:00,
2013-02-02 22:34:00,26.3,23.5,30.02,SE,131,0.0,0.0,89,0.00,,---,0.00,VWS V13.01,2013-02-03 03:34:00,
2013-02-02 22:39:00,26.3,23.5,30.02,SE,131,0.0,0.0,89,0.00,,---,0.00,VWS V13.01,2013-02-03 03:39:00,
2013-02-02 22:44:00,26.3,23.5,30.03,SE,131,0.0,0.0,89,0.00,,---,0.00,VWS V13.01,2013-02-03 03:44:00,
2013-02-02 22:49:00,26.2,23.4,30.02,SE,131,0.0,0.0,89,0.00,,---,0.00,VWS V13.01,2013-02-03 03:49:00,
2013-02-02 22:54:00,26.1,23.3,30.02,SE,131,0.0,0.0,89,0.00,,---,0.00,VWS V13.01,2013-02-03 03:54:00,
2013-02-02 22:59:00,26.1,23.6,30.02,SE,131,0.0,0.0,90,0.00,,---,0.00,VWS V13.01,2013-02-03 03:59:00,
2013-02-02 23:00:00,26.4,23.9,30.02,NNE,23,0.0,0.0,90,0.00,,SKC,0.00,VWS V14.01,2013-02-03 04:00:00,
2013-02-02 23:04:00,26.2,23.7,30.02,SE,131,0.0,0.0,90,0.00,,---,0.00,VWS V13.01,2013-02-03 04:04:00,
2013-02-02 23:09:00,26.3,23.8,30.02,NNE,25,0.0,0.0,90,0.00,,---,0.00,VWS V13.01,2013-02-03 04:09:00,
2013-02-02 23:14:00,26.3,23.8,30.02,NNE,25,0.0,0.0,90,0.00,,---,0.00,VWS V13.01,2013-02-03 04:14:00,
2013-02-02 23:19:00,26.3,23.8,30.02,NNE,25,0.0,0.0,90,0.00,,---,0.00,VWS V13.01,2013-02-03 04:19:00,
2013-02-02 23:24:00,26.3,23.8,30.02,NNE,25,0.0,0.0,90,0.00,,---,0.00,VWS V13.01,2013-02-03 04:24:00,
2013-02-02 23:29:00,26.2,23.7,30.02,NNE,25,0.0,0.0,90,0.00,,---,0.00,VWS V13.01,2013-02-03 04:29:00,
2013-02-02 23:30:00,26.4,24.1,30.01,NNE,23,0.0,0.0,91,0.00,,SKC,0.00,VWS V14.01,2013-02-03 04:30:00,
2013-02-02 23:34:00,26.3,23.8,30.02,NNE,26,0.0,0.0,90,0.00,,---,0.00,VWS V13.01,2013-02-03 04:34:00,
2013-02-02 23:39:00,26.3,23.8,30.03,NNE,25,0.0,0.0,90,0.00,,---,0.00,VWS V13.01,2013-02-03 04:39:00,
2013-02-02 23:44:00,26.4,23.9,30.03,NNE,25,0.0,0.0,90,0.00,,---,0.00,VWS V13.01,2013-02-03 04:44:00,
2013-02-02 23:49:00,26.4,23.9,30.02,NNE,26,0.0,0.0,90,0.00,,---,0.00,VWS V13.01,2013-02-03 04:49:00,
2013-02-02 23:54:00,26.4,23.9,30.02,NNE,23,0.0,0.0,90,0.00,,---,0.00,VWS V13.01,2013-02-03 04:54:00,
2013-02-02 23:59:00,26.4,23.9,30.02,NNE,23,0.0,0.0,90,0.00,,---,0.00,VWS V13.01,2013-02-03 04:59:00,